Powrót do katalogu

SCOUT B DEB

LostUNKNOWN
NORAD 29179·DEBRIS·🇺🇸 United States

Wystrzelony Aug 10, 1965 z Wallops Flight Facility

Loading…

Następne Przeloty (najbliższe 24 godziny)

TLE

NieaktualneSource: Space-Track

Epoka: Dec 31, 2017, 17:56 UTC

1 29179U 65063AD  17365.74742390 -.00000115  00000-0 -56996-3 0  9993
2 29179  69.2247 115.0130 0757017  27.5610 336.3469 11.84250357545025

Śledź SCOUT B DEB w czasie rzeczywistym z AllMySat

Download on the App Store